Wetterdaten: Freitag, 27.05.2016
Datum Zeit Auen-Temp. Temp gefhlt Luftfeuchte Luftdruck Regen Wind Richtung Richtung Sonnenschein Taupunkt Windben
27.05.2016 00:00 12,7 C 12,5 C 77 % 1016,2 hPa 0,0 mm 0,0 km/h (0 Bft) S 180 0 min 8,8 C 0,0 km/h (0 Bft)
27.05.2016 00:03 13,0 C 12,6 C 77 % 1016,2 hPa 0,0 mm 0,0 km/h (0 Bft) S 180 0 min 9,1 C 0,0 km/h (0 Bft)
27.05.2016 00:06 13,0 C 12,6 C 77 % 1016,2 hPa 0,0 mm 0,0 km/h (0 Bft) S 180 0 min 9,1 C 0,0 km/h (0 Bft)
27.05.2016 00:10 13,3 C 13,1 C 76 % 1016,2 hPa 0,0 mm 0,0 km/h (0 Bft) O-NO 67 0 min 9,2 C 0,0 km/h (0 Bft)
27.05.2016 00:15 13,1 C 12,9 C 76 % 1016,2 hPa 0,0 mm 0,0 km/h (0 Bft) N-NW 337 0 min 9,0 C 0,0 km/h (0 Bft)
27.05.2016 00:20 13,1 C 13,1 C 76 % 1016,2 hPa 0,0 mm 0,0 km/h (0 Bft) S-SO 157 0 min 9,0 C 0,0 km/h (0 Bft)
27.05.2016 00:25 13,3 C 13,2 C 76 % 1016,2 hPa 0,0 mm 0,0 km/h (0 Bft) S 180 0 min 9,2 C 0,0 km/h (0 Bft)
27.05.2016 00:30 13,6 C 13,4 C 76 % 1016,2 hPa 0,0 mm 0,0 km/h (0 Bft) NO 45 0 min 9,4 C 0,0 km/h (0 Bft)
27.05.2016 00:35 13,5 C 13,3 C 76 % 1016,2 hPa 0,0 mm 0,0 km/h (0 Bft) W-NW 292 0 min 9,4 C 0,0 km/h (0 Bft)
27.05.2016 00:40 13,3 C 13,2 C 76 % 1016,2 hPa 0,0 mm 0,0 km/h (0 Bft) SO 135 0 min 9,2 C 0,0 km/h (0 Bft)
27.05.2016 00:45 13,3 C 13,2 C 76 % 1016,2 hPa 0,0 mm 0,0 km/h (0 Bft) O-SO 112 0 min 9,2 C 0,0 km/h (0 Bft)
27.05.2016 00:50 13,6 C 13,4 C 76 % 1016,0 hPa 0,0 mm 0,0 km/h (0 Bft) SO 135 0 min 9,4 C 0,0 km/h (0 Bft)
27.05.2016 00:55 13,6 C 13,4 C 76 % 1016,0 hPa 0,0 mm 0,0 km/h (0 Bft) O-SO 112 0 min 9,4 C 0,0 km/h (0 Bft)
27.05.2016 01:00 13,6 C 13,3 C 75 % 1016,0 hPa 0,0 mm 0,0 km/h (0 Bft) W-SW 247 0 min 9,3 C 0,0 km/h (0 Bft)
27.05.2016 01:05 13,4 C 13,2 C 75 % 1016,0 hPa 0,0 mm 0,0 km/h (0 Bft) NW 315 0 min 9,1 C 0,0 km/h (0 Bft)
27.05.2016 01:10 13,2 C 12,9 C 75 % 1015,8 hPa 0,0 mm 0,0 km/h (0 Bft) O-SO 112 0 min 8,9 C 0,0 km/h (0 Bft)
27.05.2016 01:15 13,3 C 12,9 C 76 % 1015,8 hPa 0,0 mm 0,0 km/h (0 Bft) S-SO 157 0 min 9,2 C 0,0 km/h (0 Bft)
27.05.2016 01:20 13,0 C 12,5 C 75 % 1015,8 hPa 0,0 mm 0,0 km/h (0 Bft) W 270 0 min 8,7 C 0,0 km/h (0 Bft)
27.05.2016 01:25 12,7 C 12,1 C 76 % 1015,8 hPa 0,0 mm 0,0 km/h (0 Bft) O-SO 112 0 min 8,6 C 0,0 km/h (0 Bft)
27.05.2016 01:30 12,5 C 12,0 C 76 % 1015,8 hPa 0,0 mm 0,0 km/h (0 Bft) SO 135 0 min 8,4 C 0,0 km/h (0 Bft)
27.05.2016 01:35 12,4 C 11,9 C 77 % 1015,8 hPa 0,0 mm 0,0 km/h (0 Bft) S 180 0 min 8,5 C 0,0 km/h (0 Bft)
27.05.2016 01:40 12,0 C 11,7 C 77 % 1015,8 hPa 0,0 mm 0,0 km/h (0 Bft) O-NO 67 0 min 8,1 C 0,0 km/h (0 Bft)
27.05.2016 01:45 12,0 C 11,5 C 77 % 1015,8 hPa 0,0 mm 0,0 km/h (0 Bft) O-SO 112 0 min 8,1 C 0,0 km/h (0 Bft)
27.05.2016 01:50 12,0 C 11,6 C 78 % 1015,5 hPa 0,0 mm 0,0 km/h (0 Bft) S-SO 157 0 min 8,3 C 0,0 km/h (0 Bft)
27.05.2016 01:55 12,1 C 11,8 C 78 % 1015,5 hPa 0,0 mm 0,0 km/h (0 Bft) O-SO 112 0 min 8,4 C 0,0 km/h (0 Bft)
27.05.2016 02:00 12,2 C 11,8 C 79 % 1015,5 hPa 0,0 mm 0,0 km/h (0 Bft) S-SO 157 0 min 8,7 C 0,0 km/h (0 Bft)
27.05.2016 02:05 12,1 C 11,8 C 78 % 1015,5 hPa 0,0 mm 1,5 km/h (1 Bft) SW 225 0 min 8,4 C 5,7 km/h (1 Bft)
27.05.2016 02:10 11,9 C 11,5 C 78 % 1015,2 hPa 0,0 mm 1,5 km/h (1 Bft) S 180 0 min 8,2 C 0,0 km/h (0 Bft)
27.05.2016 02:15 11,6 C 11,3 C 78 % 1015,2 hPa 0,0 mm 0,0 km/h (0 Bft) N-NO 22 0 min 7,9 C 0,0 km/h (0 Bft)
27.05.2016 02:20 11,2 C 10,8 C 78 % 1015,2 hPa 0,0 mm 0,0 km/h (0 Bft) N-NW 337 0 min 7,5 C 0,0 km/h (0 Bft)
27.05.2016 02:25 11,0 C 10,4 C 78 % 1015,2 hPa 0,0 mm 0,0 km/h (0 Bft) N-NW 337 0 min 7,3 C 0,0 km/h (0 Bft)
27.05.2016 02:30 10,8 C 10,3 C 78 % 1015,1 hPa 0,0 mm 0,0 km/h (0 Bft) N-NO 22 0 min 7,1 C 0,0 km/h (0 Bft)
27.05.2016 02:35 10,8 C 10,2 C 79 % 1015,1 hPa 0,0 mm 0,0 km/h (0 Bft) N-NW 337 0 min 7,3 C 0,0 km/h (0 Bft)
27.05.2016 02:40 10,7 C 10,2 C 79 % 1015,1 hPa 0,0 mm 0,0 km/h (0 Bft) N 360 0 min 7,2 C 0,0 km/h (0 Bft)
27.05.2016 02:45 10,5 C 9,9 C 79 % 1015,1 hPa 0,0 mm 0,0 km/h (0 Bft) W 270 0 min 7,0 C 0,0 km/h (0 Bft)
27.05.2016 02:50 10,3 C 9,7 C 79 % 1015,1 hPa 0,0 mm 0,0 km/h (0 Bft) N-NW 337 0 min 6,8 C 0,0 km/h (0 Bft)
27.05.2016 02:55 10,3 C 9,6 C 79 % 1015,1 hPa 0,0 mm 0,0 km/h (0 Bft) N-NO 22 0 min 6,8 C 0,0 km/h (0 Bft)
27.05.2016 03:00 10,3 C 9,7 C 79 % 1015,1 hPa 0,0 mm 0,0 km/h (0 Bft) N-NW 337 0 min 6,8 C 0,0 km/h (0 Bft)
27.05.2016 03:05 10,2 C 9,7 C 79 % 1015,1 hPa 0,0 mm 0,0 km/h (0 Bft) N 360 0 min 6,7 C 0,0 km/h (0 Bft)
27.05.2016 03:07 10,2 C 9,7 C 79 % 1015,1 hPa 0,0 mm 0,0 km/h (0 Bft) N 360 0 min 6,7 C 0,0 km/h (0 Bft)
27.05.2016 03:10 10,0 C 9,5 C 79 % 1014,9 hPa 0,0 mm 0,0 km/h (0 Bft) O-NO 67 0 min 6,5 C 0,0 km/h (0 Bft)
27.05.2016 03:15 10,0 C 9,5 C 80 % 1014,9 hPa 0,0 mm 0,0 km/h (0 Bft) O-NO 67 0 min 6,7 C 0,0 km/h (0 Bft)
27.05.2016 03:20 10,0 C 9,5 C 80 % 1014,9 hPa 0,0 mm 0,0 km/h (0 Bft) O-NO 67 0 min 6,7 C 0,0 km/h (0 Bft)
27.05.2016 03:25 10,1 C 9,6 C 81 % 1014,9 hPa 0,0 mm 0,0 km/h (0 Bft) O-NO 67 0 min 7,0 C 0,0 km/h (0 Bft)
27.05.2016 03:30 10,2 C 9,7 C 81 % 1014,9 hPa 0,0 mm 0,0 km/h (0 Bft) N-NW 337 0 min 7,1 C 0,0 km/h (0 Bft)
27.05.2016 03:35 10,1 C 9,7 C 81 % 1014,9 hPa 0,0 mm 0,0 km/h (0 Bft) N-NW 337 0 min 7,0 C 0,0 km/h (0 Bft)
27.05.2016 03:40 10,1 C 9,7 C 81 % 1014,9 hPa 0,0 mm 0,0 km/h (0 Bft) N-NW 337 0 min 7,0 C 0,0 km/h (0 Bft)
27.05.2016 03:45 10,0 C 9,6 C 81 % 1014,9 hPa 0,0 mm 0,0 km/h (0 Bft) NO 45 0 min 6,9 C 0,0 km/h (0 Bft)
27.05.2016 03:50 9,9 C 9,4 C 82 % 1014,8 hPa 0,0 mm 0,0 km/h (0 Bft) N-NO 22 0 min 7,0 C 0,0 km/h (0 Bft)
27.05.2016 03:55 9,8 C 9,3 C 82 % 1014,8 hPa 0,0 mm 0,0 km/h (0 Bft) N-NO 22 0 min 6,9 C 0,0 km/h (0 Bft)
27.05.2016 04:00 9,6 C 9,1 C 82 % 1014,8 hPa 0,0 mm 0,0 km/h (0 Bft) N-NW 337 0 min 6,7 C 0,0 km/h (0 Bft)
27.05.2016 04:05 9,6 C 9,0 C 82 % 1014,8 hPa 0,0 mm 0,0 km/h (0 Bft) N-NO 22 0 min 6,7 C 0,0 km/h (0 Bft)
27.05.2016 04:10 9,7 C 9,1 C 82 % 1014,6 hPa 0,0 mm 0,0 km/h (0 Bft) N-NW 337 0 min 6,8 C 0,0 km/h (0 Bft)
27.05.2016 04:15 9,6 C 9,0 C 82 % 1014,6 hPa 0,0 mm 0,0 km/h (0 Bft) W-NW 292 0 min 6,7 C 0,0 km/h (0 Bft)
27.05.2016 04:20 9,5 C 9,0 C 82 % 1014,6 hPa 0,0 mm 0,0 km/h (0 Bft) NW 315 0 min 6,6 C 0,0 km/h (0 Bft)
27.05.2016 04:25 9,5 C 9,0 C 82 % 1014,6 hPa 0,0 mm 0,0 km/h (0 Bft) N-NW 337 0 min 6,6 C 0,0 km/h (0 Bft)
27.05.2016 04:30 9,3 C 8,8 C 82 % 1014,7 hPa 0,0 mm 0,0 km/h (0 Bft) W-NW 292 0 min 6,4 C 0,0 km/h (0 Bft)
27.05.2016 04:35 9,3 C 8,9 C 82 % 1014,7 hPa 0,0 mm 0,0 km/h (0 Bft) W 270 0 min 6,4 C 0,0 km/h (0 Bft)
27.05.2016 04:40 9,3 C 8,9 C 83 % 1014,7 hPa 0,0 mm 0,0 km/h (0 Bft) W 270 0 min 6,6 C 0,0 km/h (0 Bft)
27.05.2016 04:45 9,3 C 8,9 C 83 % 1014,7 hPa 0,0 mm 0,0 km/h (0 Bft) NO 45 0 min 6,6 C 0,0 km/h (0 Bft)
27.05.2016 04:50 9,3 C 8,9 C 83 % 1014,6 hPa 0,0 mm 0,0 km/h (0 Bft) N-NO 22 0 min 6,6 C 0,0 km/h (0 Bft)
27.05.2016 04:55 9,3 C 8,8 C 83 % 1014,6 hPa 0,0 mm 0,0 km/h (0 Bft) N-NO 22 0 min 6,6 C 0,0 km/h (0 Bft)
27.05.2016 05:00 9,2 C 8,7 C 83 % 1014,6 hPa 0,0 mm 0,0 km/h (0 Bft) N-NO 22 0 min 6,5 C 0,0 km/h (0 Bft)
27.05.2016 05:05 9,2 C 8,7 C 83 % 1014,6 hPa 0,0 mm 0,0 km/h (0 Bft) O-SO 112 0 min 6,5 C 0,0 km/h (0 Bft)
27.05.2016 05:10 9,6 C 9,2 C 84 % 1014,6 hPa 0,0 mm 0,0 km/h (0 Bft) S-SO 157 0 min 7,0 C 0,0 km/h (0 Bft)
27.05.2016 05:15 9,7 C 9,3 C 84 % 1014,6 hPa 0,0 mm 0,0 km/h (0 Bft) S-SO 157 0 min 7,1 C 0,0 km/h (0 Bft)
27.05.2016 05:20 9,8 C 9,5 C 84 % 1014,6 hPa 0,0 mm 0,0 km/h (0 Bft) SO 135 0 min 7,2 C 0,0 km/h (0 Bft)
27.05.2016 05:25 9,8 C 9,5 C 84 % 1014,6 hPa 0,0 mm 0,0 km/h (0 Bft) S 180 0 min 7,2 C 0,0 km/h (0 Bft)
27.05.2016 05:30 9,7 C 9,3 C 84 % 1014,6 hPa 0,0 mm 0,0 km/h (0 Bft) O-NO 67 0 min 7,1 C 0,0 km/h (0 Bft)
27.05.2016 05:35 9,7 C 9,3 C 84 % 1014,6 hPa 0,0 mm 0,0 km/h (0 Bft) SW 225 0 min 7,1 C 0,0 km/h (0 Bft)
27.05.2016 05:40 9,8 C 9,5 C 84 % 1014,6 hPa 0,0 mm 0,0 km/h (0 Bft) O-SO 112 0 min 7,2 C 0,0 km/h (0 Bft)
27.05.2016 05:45 9,8 C 9,5 C 84 % 1014,6 hPa 0,0 mm 0,0 km/h (0 Bft) N-NW 337 0 min 7,2 C 0,0 km/h (0 Bft)
27.05.2016 05:50 9,7 C 9,4 C 84 % 1014,6 hPa 0,0 mm 0,0 km/h (0 Bft) N-NO 22 0 min 7,1 C 0,0 km/h (0 Bft)
27.05.2016 05:55 9,7 C 9,6 C 84 % 1014,6 hPa 0,0 mm 0,0 km/h (0 Bft) N-NO 22 0 min 7,1 C 0,0 km/h (0 Bft)
27.05.2016 06:00 9,8 C 10,1 C 84 % 1014,6 hPa 0,0 mm 0,0 km/h (0 Bft) O-NO 67 0 min 7,2 C 0,0 km/h (0 Bft)
27.05.2016 06:05 9,8 C 10,1 C 84 % 1014,6 hPa 0,0 mm 0,0 km/h (0 Bft) N-NO 22 0 min 7,2 C 0,0 km/h (0 Bft)
27.05.2016 06:08 9,8 C 10,1 C 84 % 1014,6 hPa 0,0 mm 0,0 km/h (0 Bft) N-NO 22 0 min 7,2 C 0,0 km/h (0 Bft)
27.05.2016 06:10 10,2 C 10,6 C 83 % 1014,6 hPa 0,0 mm 0,0 km/h (0 Bft) NO 45 0 min 7,4 C 0,0 km/h (0 Bft)
27.05.2016 06:15 10,5 C 10,8 C 83 % 1014,6 hPa 0,0 mm 0,0 km/h (0 Bft) N-NO 22 0 min 7,7 C 0,0 km/h (0 Bft)
27.05.2016 06:20 10,8 C 12,0 C 83 % 1014,6 hPa 0,0 mm 0,0 km/h (0 Bft) N-NO 22 0 min 8,0 C 0,0 km/h (0 Bft)
27.05.2016 06:25 11,1 C 12,4 C 83 % 1014,6 hPa 0,0 mm 0,0 km/h (0 Bft) N-NO 22 0 min 8,3 C 0,0 km/h (0 Bft)
27.05.2016 06:30 11,4 C 12,6 C 83 % 1014,8 hPa 0,0 mm 0,0 km/h (0 Bft) N-NO 22 0 min 8,6 C 0,0 km/h (0 Bft)
27.05.2016 06:35 11,5 C 12,8 C 83 % 1014,8 hPa 0,0 mm 0,0 km/h (0 Bft) N-NO 22 0 min 8,7 C 0,0 km/h (0 Bft)
27.05.2016 06:40 11,9 C 13,6 C 82 % 1014,8 hPa 0,0 mm 0,0 km/h (0 Bft) N-NO 22 0 min 8,9 C 0,0 km/h (0 Bft)
27.05.2016 06:45 11,9 C 13,4 C 82 % 1014,8 hPa 0,0 mm 0,0 km/h (0 Bft) O-NO 67 0 min 8,9 C 0,0 km/h (0 Bft)
27.05.2016 06:50 11,8 C 13,1 C 82 % 1014,8 hPa 0,0 mm 0,0 km/h (0 Bft) NO 45 0 min 8,8 C 0,0 km/h (0 Bft)
27.05.2016 06:55 12,0 C 13,1 C 82 % 1014,8 hPa 0,0 mm 0,0 km/h (0 Bft) N-NO 22 0 min 9,0 C 0,0 km/h (0 Bft)
27.05.2016 07:00 12,2 C 13,4 C 82 % 1014,8 hPa 0,0 mm 0,0 km/h (0 Bft) N 360 0 min 9,2 C 0,0 km/h (0 Bft)
27.05.2016 07:05 12,4 C 13,6 C 82 % 1014,8 hPa 0,0 mm 0,0 km/h (0 Bft) N-NO 22 0 min 9,4 C 0,0 km/h (0 Bft)
27.05.2016 07:10 12,6 C 13,9 C 81 % 1015,0 hPa 0,0 mm 0,0 km/h (0 Bft) NW 315 0 min 9,4 C 0,0 km/h (0 Bft)
27.05.2016 07:15 12,7 C 14,0 C 81 % 1015,0 hPa 0,0 mm 0,0 km/h (0 Bft) NO 45 0 min 9,5 C 0,0 km/h (0 Bft)
27.05.2016 07:20 12,9 C 14,1 C 81 % 1015,0 hPa 0,0 mm 0,0 km/h (0 Bft) N-NO 22 0 min 9,7 C 0,0 km/h (0 Bft)
27.05.2016 07:25 13,0 C 14,4 C 80 % 1015,0 hPa 0,0 mm 0,0 km/h (0 Bft) O-NO 67 0 min 9,6 C 0,0 km/h (0 Bft)
27.05.2016 07:30 13,4 C 14,9 C 80 % 1015,2 hPa 0,0 mm 0,0 km/h (0 Bft) N-NO 22 0 min 10,0 C 0,0 km/h (0 Bft)
27.05.2016 07:35 13,6 C 15,2 C 79 % 1015,2 hPa 0,0 mm 0,0 km/h (0 Bft) N-NO 22 0 min 10,0 C 0,0 km/h (0 Bft)
27.05.2016 07:40 13,7 C 15,5 C 79 % 1015,2 hPa 0,0 mm 0,0 km/h (0 Bft) O-NO 67 0 min 10,1 C 0,0 km/h (0 Bft)
27.05.2016 07:45 13,8 C 15,5 C 79 % 1015,2 hPa 0,0 mm 0,0 km/h (0 Bft) N 360 0 min 10,2 C 0,0 km/h (0 Bft)
27.05.2016 07:50 14,3 C 16,2 C 78 % 1015,2 hPa 0,0 mm 0,0 km/h (0 Bft) NO 45 0 min 10,5 C 0,0 km/h (0 Bft)
27.05.2016 07:55 15,2 C 18,1 C 78 % 1015,2 hPa 0,0 mm 0,0 km/h (0 Bft) N-NO 22 0 min 11,4 C 0,0 km/h (0 Bft)
27.05.2016 08:00 15,9 C 20,3 C 76 % 1015,2 hPa 0,0 mm 0,0 km/h (0 Bft) O-NO 67 5 min 11,7 C 0,0 km/h (0 Bft)
27.05.2016 08:05 15,9 C 21,0 C 75 % 1015,2 hPa 0,0 mm 0,0 km/h (0 Bft) N-NW 337 5 min 11,5 C 0,0 km/h (0 Bft)
27.05.2016 08:10 16,1 C 21,5 C 74 % 1015,4 hPa 0,0 mm 0,0 km/h (0 Bft) SO 135 5 min 11,5 C 0,0 km/h (0 Bft)
27.05.2016 08:15 16,6 C 22,4 C 74 % 1015,4 hPa 0,0 mm 0,0 km/h (0 Bft) SO 135 5 min 11,9 C 0,0 km/h (0 Bft)
27.05.2016 08:20 17,2 C 23,5 C 72 % 1015,4 hPa 0,0 mm 0,0 km/h (0 Bft) O-SO 112 5 min 12,1 C 0,0 km/h (0 Bft)
27.05.2016 08:25 17,5 C 24,4 C 72 % 1015,4 hPa 0,0 mm 0,0 km/h (0 Bft) O-SO 112 5 min 12,4 C 0,0 km/h (0 Bft)
27.05.2016 08:30 17,8 C 25,1 C 70 % 1015,4 hPa 0,0 mm 0,0 km/h (0 Bft) N-NO 22 5 min 12,3 C 0,0 km/h (0 Bft)
27.05.2016 08:35 18,1 C 25,1 C 70 % 1015,4 hPa 0,0 mm 0,0 km/h (0 Bft) O-NO 67 5 min 12,5 C 0,0 km/h (0 Bft)
27.05.2016 08:40 18,8 C 25,9 C 69 % 1015,4 hPa 0,0 mm 0,0 km/h (0 Bft) SO 135 5 min 13,0 C 0,0 km/h (0 Bft)
27.05.2016 08:45 19,1 C 26,1 C 68 % 1015,4 hPa 0,0 mm 1,2 km/h (1 Bft) W-NW 292 5 min 13,1 C 8,6 km/h (2 Bft)
27.05.2016 08:50 18,9 C 24,6 C 67 % 1016,0 hPa 0,0 mm 2,7 km/h (1 Bft) N-NW 337 5 min 12,6 C 0,0 km/h (0 Bft)
27.05.2016 08:55 19,1 C 24,2 C 67 % 1016,0 hPa 0,0 mm 2,4 km/h (1 Bft) W-NW 292 5 min 12,8 C 0,0 km/h (0 Bft)
27.05.2016 09:00 19,7 C 24,8 C 66 % 1016,0 hPa 0,0 mm 0,3 km/h (0 Bft) W-NW 292 5 min 13,2 C 5,7 km/h (1 Bft)
27.05.2016 09:05 19,9 C 25,0 C 65 % 1016,0 hPa 0,0 mm 1,5 km/h (1 Bft) W 270 5 min 13,1 C 7,7 km/h (2 Bft)
27.05.2016 09:08 20,4 C 25,4 C 64 % 1016,2 hPa 0,0 mm 5,4 km/h (1 Bft) W 270 3 min 13,4 C 6,6 km/h (2 Bft)
27.05.2016 09:09 20,4 C 25,4 C 64 % 1016,2 hPa 0,0 mm 5,4 km/h (1 Bft) W 270 1 min 13,4 C 6,6 km/h (2 Bft)
27.05.2016 09:10 20,4 C 25,4 C 64 % 1016,2 hPa 0,0 mm 5,4 km/h (1 Bft) W 270 1 min 13,4 C 11,3 km/h (2 Bft)
27.05.2016 09:15 20,8 C 26,1 C 62 % 1016,2 hPa 0,0 mm 5,4 km/h (1 Bft) W 270 5 min 13,2 C 10,1 km/h (2 Bft)
27.05.2016 09:20 20,7 C 25,6 C 59 % 1016,2 hPa 0,0 mm 6,3 km/h (2 Bft) SW 225 5 min 12,4 C 17,6 km/h (3 Bft)
27.05.2016 09:25 21,2 C 26,5 C 58 % 1016,2 hPa 0,0 mm 6,6 km/h (2 Bft) NW 315 5 min 12,6 C 14,9 km/h (3 Bft)
27.05.2016 09:30 21,3 C 26,8 C 56 % 1016,4 hPa 0,0 mm 7,2 km/h (2 Bft) NW 315 5 min 12,2 C 18,2 km/h (3 Bft)
27.05.2016 09:35 21,5 C 26,7 C 57 % 1016,4 hPa 0,0 mm 8,0 km/h (2 Bft) S-SO 157 5 min 12,6 C 10,4 km/h (2 Bft)
27.05.2016 09:40 21,4 C 26,7 C 55 % 1016,4 hPa 0,0 mm 6,9 km/h (2 Bft) W 270 5 min 12,0 C 22,9 km/h (4 Bft)
27.05.2016 09:45 21,5 C 26,7 C 55 % 1016,4 hPa 0,0 mm 7,5 km/h (2 Bft) W 270 5 min 12,1 C 5,4 km/h (1 Bft)
27.05.2016 09:50 21,6 C 26,9 C 54 % 1016,8 hPa 0,0 mm 7,2 km/h (2 Bft) W-NW 292 5 min 11,9 C 12,5 km/h (3 Bft)
27.05.2016 09:55 21,6 C 26,9 C 54 % 1016,8 hPa 0,0 mm 6,6 km/h (2 Bft) W-SW 247 5 min 11,9 C 9,8 km/h (2 Bft)
27.05.2016 10:00 21,6 C 27,0 C 53 % 1016,8 hPa 0,0 mm 7,7 km/h (2 Bft) W-SW 247 5 min 11,6 C 23,5 km/h (4 Bft)
27.05.2016 10:05 21,7 C 26,9 C 53 % 1016,8 hPa 0,0 mm 7,7 km/h (2 Bft) W 270 5 min 11,7 C 9,8 km/h (2 Bft)
27.05.2016 10:10 21,9 C 26,8 C 54 % 1017,2 hPa 0,0 mm 8,6 km/h (2 Bft) W-SW 247 5 min 12,2 C 11,0 km/h (2 Bft)
27.05.2016 10:15 22,1 C 27,0 C 54 % 1017,2 hPa 0,0 mm 8,6 km/h (2 Bft) W-NW 292 5 min 12,3 C 13,4 km/h (3 Bft)
27.05.2016 10:20 22,5 C 27,7 C 54 % 1017,2 hPa 0,0 mm 6,0 km/h (2 Bft) W-SW 247 5 min 12,7 C 6,9 km/h (2 Bft)
27.05.2016 10:25 22,8 C 28,3 C 54 % 1017,2 hPa 0,0 mm 4,2 km/h (1 Bft) W 270 5 min 13,0 C 13,1 km/h (3 Bft)
27.05.2016 10:30 22,4 C 27,8 C 53 % 1017,4 hPa 0,0 mm 6,6 km/h (2 Bft) NW 315 5 min 12,3 C 7,7 km/h (2 Bft)
27.05.2016 10:35 22,2 C 26,9 C 52 % 1017,4 hPa 0,0 mm 9,5 km/h (2 Bft) SW 225 5 min 11,9 C 11,9 km/h (2 Bft)
27.05.2016 10:40 22,2 C 26,4 C 53 % 1017,4 hPa 0,0 mm 11,3 km/h (2 Bft) W-NW 292 5 min 12,2 C 22,9 km/h (4 Bft)
27.05.2016 10:45 22,0 C 25,8 C 51 % 1017,4 hPa 0,0 mm 12,8 km/h (3 Bft) W 270 5 min 11,4 C 13,7 km/h (3 Bft)
27.05.2016 10:50 21,7 C 25,1 C 51 % 1017,8 hPa 0,0 mm 14,6 km/h (3 Bft) W-NW 292 0 min 11,1 C 28,6 km/h (4 Bft)
27.05.2016 10:55 21,8 C 25,0 C 51 % 1017,8 hPa 0,0 mm 14,0 km/h (3 Bft) W-SW 247 0 min 11,2 C 19,4 km/h (3 Bft)
27.05.2016 11:00 21,9 C 25,2 C 53 % 1017,8 hPa 0,0 mm 10,4 km/h (2 Bft) W-NW 292 0 min 11,9 C 17,6 km/h (3 Bft)
27.05.2016 11:05 22,1 C 25,4 C 52 % 1017,8 hPa 0,0 mm 8,3 km/h (2 Bft) NW 315 0 min 11,8 C 10,4 km/h (2 Bft)
27.05.2016 11:10 22,4 C 26,6 C 52 % 1017,8 hPa 0,0 mm 9,2 km/h (2 Bft) W 270 5 min 12,1 C 20,3 km/h (4 Bft)
27.05.2016 11:15 22,3 C 26,5 C 51 % 1017,8 hPa 0,0 mm 10,4 km/h (2 Bft) W 270 5 min 11,7 C 18,8 km/h (3 Bft)
27.05.2016 11:20 22,3 C 26,3 C 52 % 1017,8 hPa 0,0 mm 10,7 km/h (2 Bft) SW 225 5 min 12,0 C 7,2 km/h (2 Bft)
27.05.2016 11:25 22,8 C 27,0 C 52 % 1017,8 hPa 0,0 mm 9,2 km/h (2 Bft) W-NW 292 5 min 12,4 C 25,6 km/h (4 Bft)
27.05.2016 11:30 22,8 C 26,6 C 51 % 1017,8 hPa 0,0 mm 11,0 km/h (2 Bft) S-SW 202 5 min 12,1 C 8,9 km/h (2 Bft)
27.05.2016 11:35 22,8 C 26,5 C 51 % 1017,8 hPa 0,0 mm 12,5 km/h (3 Bft) W 270 5 min 12,1 C 15,2 km/h (3 Bft)
27.05.2016 11:40 22,9 C 26,8 C 49 % 1017,8 hPa 0,0 mm 11,0 km/h (2 Bft) W 270 5 min 11,6 C 28,9 km/h (5 Bft)
27.05.2016 11:45 22,8 C 26,8 C 49 % 1017,8 hPa 0,0 mm 11,3 km/h (2 Bft) NW 315 5 min 11,5 C 20,0 km/h (4 Bft)
27.05.2016 11:50 22,9 C 27,0 C 51 % 1017,9 hPa 0,0 mm 10,7 km/h (2 Bft) W 270 0 min 12,2 C 5,7 km/h (1 Bft)
27.05.2016 11:55 23,1 C 27,2 C 50 % 1017,9 hPa 0,0 mm 10,7 km/h (2 Bft) NW 315 5 min 12,1 C 7,7 km/h (2 Bft)
27.05.2016 12:00 23,2 C 27,2 C 49 % 1017,9 hPa 0,0 mm 11,6 km/h (2 Bft) N-NW 337 5 min 11,9 C 13,4 km/h (3 Bft)
27.05.2016 12:05 23,2 C 27,1 C 49 % 1017,9 hPa 0,0 mm 12,2 km/h (2 Bft) W 270 0 min 11,9 C 18,8 km/h (3 Bft)
27.05.2016 12:08 23,2 C 27,5 C 50 % 1017,9 hPa 0,0 mm 10,4 km/h (2 Bft) W 270 3 min 12,2 C 10,1 km/h (2 Bft)
27.05.2016 12:10 23,2 C 27,5 C 50 % 1017,9 hPa 0,0 mm 10,4 km/h (2 Bft) W 270 2 min 12,2 C 10,1 km/h (2 Bft)
27.05.2016 12:15 23,3 C 27,7 C 50 % 1017,9 hPa 0,0 mm 9,5 km/h (2 Bft) W-NW 292 5 min 12,3 C 22,7 km/h (4 Bft)
27.05.2016 12:20 23,4 C 27,8 C 50 % 1017,9 hPa 0,0 mm 8,9 km/h (2 Bft) W 270 5 min 12,4 C 7,5 km/h (2 Bft)
27.05.2016 12:25 23,5 C 28,1 C 50 % 1017,9 hPa 0,0 mm 9,5 km/h (2 Bft) W-NW 292 5 min 12,5 C 12,2 km/h (2 Bft)
27.05.2016 12:30 23,7 C 28,1 C 50 % 1018,0 hPa 0,0 mm 11,0 km/h (2 Bft) W 270 5 min 12,6 C 14,0 km/h (3 Bft)
27.05.2016 12:35 23,7 C 28,0 C 50 % 1018,0 hPa 0,0 mm 11,0 km/h (2 Bft) NW 315 5 min 12,6 C 6,9 km/h (2 Bft)
27.05.2016 12:40 24,1 C 28,7 C 50 % 1018,0 hPa 0,0 mm 7,2 km/h (2 Bft) W-NW 292 5 min 13,0 C 5,1 km/h (1 Bft)
27.05.2016 12:45 24,2 C 29,1 C 49 % 1018,0 hPa 0,0 mm 5,4 km/h (1 Bft) NW 315 5 min 12,8 C 9,8 km/h (2 Bft)
27.05.2016 12:50 24,2 C 29,4 C 49 % 1017,8 hPa 0,0 mm 4,8 km/h (1 Bft) W-NW 292 5 min 12,8 C 8,3 km/h (2 Bft)
27.05.2016 12:55 24,0 C 29,1 C 49 % 1017,8 hPa 0,0 mm 8,0 km/h (2 Bft) N-NW 337 5 min 12,6 C 13,4 km/h (3 Bft)
27.05.2016 13:00 24,1 C 29,0 C 49 % 1017,8 hPa 0,0 mm 9,8 km/h (2 Bft) N-NW 337 5 min 12,7 C 10,1 km/h (2 Bft)
27.05.2016 13:05 24,3 C 29,3 C 49 % 1017,8 hPa 0,0 mm 7,5 km/h (2 Bft) W-NW 292 5 min 12,9 C 14,3 km/h (3 Bft)
27.05.2016 13:10 24,2 C 29,2 C 49 % 1017,7 hPa 0,0 mm 8,3 km/h (2 Bft) N-NW 337 5 min 12,8 C 8,3 km/h (2 Bft)
27.05.2016 13:15 24,2 C 29,3 C 47 % 1017,7 hPa 0,0 mm 8,3 km/h (2 Bft) N-NW 337 5 min 12,2 C 13,7 km/h (3 Bft)
27.05.2016 13:20 24,2 C 29,0 C 48 % 1017,7 hPa 0,0 mm 8,3 km/h (2 Bft) W-SW 247 5 min 12,5 C 15,8 km/h (3 Bft)
27.05.2016 13:25 24,1 C 28,8 C 49 % 1017,7 hPa 0,0 mm 8,9 km/h (2 Bft) W-NW 292 5 min 12,7 C 4,5 km/h (1 Bft)
27.05.2016 13:30 24,5 C 29,3 C 48 % 1017,6 hPa 0,0 mm 7,7 km/h (2 Bft) NW 315 5 min 12,8 C 15,8 km/h (3 Bft)
27.05.2016 13:35 24,3 C 29,0 C 48 % 1017,6 hPa 0,0 mm 6,6 km/h (2 Bft) NO 45 5 min 12,6 C 0,0 km/h (0 Bft)
27.05.2016 13:40 24,3 C 29,1 C 48 % 1017,6 hPa 0,0 mm 7,5 km/h (2 Bft) W-SW 247 5 min 12,6 C 13,1 km/h (3 Bft)
27.05.2016 13:45 24,3 C 29,1 C 48 % 1017,6 hPa 0,0 mm 9,8 km/h (2 Bft) NW 315 5 min 12,6 C 20,3 km/h (4 Bft)
27.05.2016 13:50 24,3 C 28,9 C 49 % 1017,4 hPa 0,0 mm 11,6 km/h (2 Bft) N 360 5 min 12,9 C 9,5 km/h (2 Bft)
27.05.2016 13:55 24,1 C 28,6 C 48 % 1017,4 hPa 0,0 mm 10,1 km/h (2 Bft) N-NW 337 5 min 12,4 C 16,4 km/h (3 Bft)
27.05.2016 14:00 23,9 C 28,3 C 49 % 1017,4 hPa 0,0 mm 8,0 km/h (2 Bft) W-SW 247 5 min 12,5 C 10,4 km/h (2 Bft)
27.05.2016 14:05 24,0 C 28,3 C 49 % 1017,4 hPa 0,0 mm 8,3 km/h (2 Bft) NW 315 5 min 12,6 C 12,8 km/h (3 Bft)
27.05.2016 14:10 24,1 C 28,4 C 47 % 1017,0 hPa 0,0 mm 8,0 km/h (2 Bft) NO 45 5 min 12,1 C 9,2 km/h (2 Bft)
27.05.2016 14:15 24,3 C 29,0 C 49 % 1017,0 hPa 0,0 mm 7,5 km/h (2 Bft) NO 45 5 min 12,9 C 3,3 km/h (1 Bft)
27.05.2016 14:20 24,2 C 29,6 C 47 % 1017,0 hPa 0,0 mm 6,6 km/h (2 Bft) W-NW 292 5 min 12,2 C 15,2 km/h (3 Bft)
27.05.2016 14:25 24,2 C 29,3 C 47 % 1017,0 hPa 0,0 mm 7,2 km/h (2 Bft) N-NO 22 5 min 12,2 C 17,0 km/h (3 Bft)
27.05.2016 14:30 24,3 C 29,0 C 47 % 1016,8 hPa 0,0 mm 10,4 km/h (2 Bft) W 270 5 min 12,3 C 10,7 km/h (2 Bft)
27.05.2016 14:35 24,3 C 29,1 C 48 % 1016,8 hPa 0,0 mm 10,4 km/h (2 Bft) W 270 5 min 12,6 C 10,4 km/h (2 Bft)
27.05.2016 14:40 24,3 C 29,0 C 49 % 1016,8 hPa 0,0 mm 6,3 km/h (2 Bft) NW 315 5 min 12,9 C 0,0 km/h (0 Bft)
27.05.2016 14:45 24,5 C 29,2 C 47 % 1016,8 hPa 0,0 mm 6,0 km/h (2 Bft) W-SW 247 5 min 12,4 C 12,8 km/h (3 Bft)
27.05.2016 14:50 24,4 C 29,3 C 48 % 1016,8 hPa 0,0 mm 8,3 km/h (2 Bft) N-NO 22 5 min 12,7 C 9,2 km/h (2 Bft)
27.05.2016 14:55 24,0 C 28,8 C 47 % 1016,8 hPa 0,0 mm 9,5 km/h (2 Bft) NO 45 5 min 12,0 C 5,1 km/h (1 Bft)
27.05.2016 15:00 24,3 C 29,6 C 48 % 1016,8 hPa 0,0 mm 6,6 km/h (2 Bft) W 270 5 min 12,6 C 14,6 km/h (3 Bft)
27.05.2016 15:05 24,5 C 29,6 C 48 % 1016,8 hPa 0,0 mm 6,6 km/h (2 Bft) W 270 5 min 12,8 C 5,7 km/h (1 Bft)
27.05.2016 15:08 24,6 C 30,1 C 49 % 1016,5 hPa 0,0 mm 7,5 km/h (2 Bft) O-NO 67 3 min 13,2 C 8,9 km/h (2 Bft)
27.05.2016 15:11 24,6 C 30,1 C 49 % 1016,5 hPa 0,0 mm 7,5 km/h (2 Bft) O-NO 67 3 min 13,2 C 8,9 km/h (2 Bft)
27.05.2016 15:15 24,5 C 29,9 C 48 % 1016,5 hPa 0,0 mm 6,6 km/h (2 Bft) N 360 4 min 12,8 C 10,1 km/h (2 Bft)
27.05.2016 15:20 24,5 C 30,0 C 48 % 1016,5 hPa 0,0 mm 9,2 km/h (2 Bft) NW 315 5 min 12,8 C 19,4 km/h (3 Bft)
27.05.2016 15:25 24,3 C 29,3 C 49 % 1016,5 hPa 0,0 mm 11,0 km/h (2 Bft) W-SW 247 5 min 12,9 C 6,9 km/h (2 Bft)
27.05.2016 15:30 24,4 C 29,0 C 49 % 1016,6 hPa 0,0 mm 9,8 km/h (2 Bft) N-NO 22 5 min 13,0 C 4,5 km/h (1 Bft)
27.05.2016 15:35 24,5 C 29,4 C 48 % 1016,6 hPa 0,0 mm 8,0 km/h (2 Bft) W 270 5 min 12,8 C 6,9 km/h (2 Bft)
27.05.2016 15:40 24,5 C 29,5 C 48 % 1016,6 hPa 0,0 mm 5,7 km/h (1 Bft) N-NW 337 5 min 12,8 C 0,0 km/h (0 Bft)
27.05.2016 15:45 24,7 C 30,1 C 47 % 1016,6 hPa 0,0 mm 6,0 km/h (2 Bft) N-NO 22 5 min 12,6 C 15,5 km/h (3 Bft)
27.05.2016 15:50 24,7 C 30,4 C 48 % 1016,3 hPa 0,0 mm 5,7 km/h (1 Bft) NW 315 5 min 12,9 C 8,0 km/h (2 Bft)
27.05.2016 15:55 24,7 C 30,3 C 49 % 1016,3 hPa 0,0 mm 6,0 km/h (2 Bft) N-NW 337 5 min 13,3 C 7,5 km/h (2 Bft)
27.05.2016 16:00 24,3 C 29,5 C 48 % 1016,3 hPa 0,0 mm 7,5 km/h (2 Bft) W 270 5 min 12,6 C 14,6 km/h (3 Bft)
27.05.2016 16:05 24,1 C 28,5 C 48 % 1016,3 hPa 0,0 mm 6,3 km/h (2 Bft) W 270 5 min 12,4 C 7,5 km/h (2 Bft)
27.05.2016 16:10 24,2 C 29,0 C 48 % 1016,2 hPa 0,0 mm 5,4 km/h (1 Bft) NW 315 5 min 12,5 C 11,9 km/h (2 Bft)
27.05.2016 16:15 24,2 C 29,2 C 49 % 1016,2 hPa 0,0 mm 6,3 km/h (2 Bft) W-SW 247 5 min 12,8 C 5,1 km/h (1 Bft)
27.05.2016 16:20 24,0 C 28,9 C 49 % 1016,2 hPa 0,0 mm 6,3 km/h (2 Bft) W 270 5 min 12,6 C 0,0 km/h (0 Bft)
27.05.2016 16:25 24,1 C 29,1 C 49 % 1016,2 hPa 0,0 mm 3,0 km/h (1 Bft) N-NO 22 5 min 12,7 C 0,0 km/h (0 Bft)
27.05.2016 16:30 24,0 C 29,3 C 49 % 1016,1 hPa 0,0 mm 3,6 km/h (1 Bft) O-NO 67 5 min 12,6 C 5,7 km/h (1 Bft)
27.05.2016 16:35 23,9 C 28,8 C 49 % 1016,1 hPa 0,0 mm 6,3 km/h (2 Bft) O-NO 67 5 min 12,5 C 10,1 km/h (2 Bft)
27.05.2016 16:40 23,8 C 28,4 C 49 % 1016,1 hPa 0,0 mm 8,9 km/h (2 Bft) N-NO 22 5 min 12,4 C 13,4 km/h (3 Bft)
27.05.2016 16:45 23,8 C 27,9 C 50 % 1016,1 hPa 0,0 mm 9,8 km/h (2 Bft) NO 45 5 min 12,7 C 13,7 km/h (3 Bft)
27.05.2016 16:50 23,7 C 26,7 C 50 % 1016,3 hPa 0,0 mm 8,0 km/h (2 Bft) NO 45 5 min 12,6 C 8,9 km/h (2 Bft)
27.05.2016 16:55 23,5 C 25,9 C 50 % 1016,3 hPa 0,0 mm 7,2 km/h (2 Bft) NO 45 5 min 12,5 C 4,5 km/h (1 Bft)
27.05.2016 17:00 23,4 C 25,4 C 50 % 1016,3 hPa 0,0 mm 7,5 km/h (2 Bft) NW 315 0 min 12,4 C 11,9 km/h (2 Bft)
27.05.2016 17:05 23,3 C 25,1 C 50 % 1016,3 hPa 0,0 mm 7,5 km/h (2 Bft) N-NO 22 0 min 12,3 C 11,3 km/h (2 Bft)
27.05.2016 17:10 23,2 C 24,7 C 50 % 1016,0 hPa 0,0 mm 8,0 km/h (2 Bft) N-NW 337 0 min 12,2 C 13,7 km/h (3 Bft)
27.05.2016 17:15 23,1 C 24,6 C 50 % 1016,0 hPa 0,0 mm 6,6 km/h (2 Bft) O-NO 67 0 min 12,1 C 5,7 km/h (1 Bft)
27.05.2016 17:20 23,2 C 25,0 C 51 % 1016,0 hPa 0,0 mm 6,6 km/h (2 Bft) O-NO 67 0 min 12,5 C 4,5 km/h (1 Bft)
27.05.2016 17:25 23,2 C 25,1 C 51 % 1016,0 hPa 0,0 mm 6,3 km/h (2 Bft) NO 45 0 min 12,5 C 8,6 km/h (2 Bft)
27.05.2016 17:30 23,2 C 25,2 C 50 % 1015,9 hPa 0,0 mm 5,4 km/h (1 Bft) O 90 0 min 12,2 C 8,9 km/h (2 Bft)
27.05.2016 17:35 23,0 C 24,8 C 50 % 1015,9 hPa 0,0 mm 6,9 km/h (2 Bft) NO 45 0 min 12,0 C 10,4 km/h (2 Bft)
27.05.2016 17:40 23,0 C 24,7 C 50 % 1015,9 hPa 0,0 mm 6,3 km/h (2 Bft) N-NO 22 0 min 12,0 C 0,0 km/h (0 Bft)
27.05.2016 17:45 23,1 C 24,8 C 51 % 1015,9 hPa 0,0 mm 5,4 km/h (1 Bft) N-NO 22 0 min 12,4 C 5,7 km/h (1 Bft)
27.05.2016 17:50 23,0 C 24,6 C 52 % 1015,9 hPa 0,0 mm 6,9 km/h (2 Bft) N-NO 22 0 min 12,6 C 7,7 km/h (2 Bft)
27.05.2016 17:55 23,1 C 24,5 C 52 % 1015,9 hPa 0,0 mm 7,5 km/h (2 Bft) O-NO 67 0 min 12,7 C 7,5 km/h (2 Bft)
27.05.2016 18:00 22,8 C 24,2 C 53 % 1015,9 hPa 0,0 mm 8,6 km/h (2 Bft) S 180 0 min 12,7 C 6,9 km/h (2 Bft)
27.05.2016 18:05 22,7 C 24,0 C 53 % 1015,9 hPa 0,0 mm 9,5 km/h (2 Bft) N-NO 22 0 min 12,6 C 20,6 km/h (4 Bft)
27.05.2016 18:10 22,7 C 24,0 C 53 % 1015,9 hPa 0,0 mm 7,7 km/h (2 Bft) N-NO 22 0 min 12,6 C 11,9 km/h (2 Bft)
27.05.2016 18:12 22,7 C 24,0 C 53 % 1015,9 hPa 0,0 mm 7,7 km/h (2 Bft) N-NO 22 0 min 12,6 C 11,9 km/h (2 Bft)
27.05.2016 18:15 22,9 C 24,4 C 54 % 1015,9 hPa 0,0 mm 7,5 km/h (2 Bft) W 270 0 min 13,1 C 16,1 km/h (3 Bft)
27.05.2016 18:20 22,7 C 24,2 C 53 % 1015,9 hPa 0,0 mm 8,3 km/h (2 Bft) N-NO 22 0 min 12,6 C 13,7 km/h (3 Bft)
27.05.2016 18:25 22,8 C 24,2 C 54 % 1015,9 hPa 0,0 mm 8,0 km/h (2 Bft) NO 45 0 min 13,0 C 7,5 km/h (2 Bft)
27.05.2016 18:30 22,7 C 24,4 C 54 % 1015,9 hPa 0,0 mm 6,3 km/h (2 Bft) O-NO 67 0 min 12,9 C 4,8 km/h (1 Bft)
27.05.2016 18:35 22,7 C 24,4 C 54 % 1015,9 hPa 0,0 mm 5,7 km/h (1 Bft) NO 45 0 min 12,9 C 6,0 km/h (2 Bft)
27.05.2016 18:40 22,7 C 24,1 C 53 % 1015,9 hPa 0,0 mm 5,1 km/h (1 Bft) O-NO 67 0 min 12,6 C 13,7 km/h (3 Bft)
27.05.2016 18:45 22,5 C 23,9 C 53 % 1015,9 hPa 0,0 mm 7,2 km/h (2 Bft) S 180 0 min 12,4 C 8,0 km/h (2 Bft)
27.05.2016 18:50 22,4 C 24,1 C 54 % 1016,1 hPa 0,0 mm 6,9 km/h (2 Bft) N-NW 337 0 min 12,6 C 0,0 km/h (0 Bft)
27.05.2016 18:55 22,3 C 24,0 C 54 % 1016,1 hPa 0,0 mm 3,0 km/h (1 Bft) NO 45 0 min 12,5 C 0,0 km/h (0 Bft)
27.05.2016 19:00 22,2 C 23,8 C 55 % 1016,1 hPa 0,0 mm 1,5 km/h (1 Bft) O-SO 112 0 min 12,7 C 6,0 km/h (2 Bft)
27.05.2016 19:05 22,1 C 23,7 C 55 % 1016,1 hPa 0,0 mm 3,3 km/h (1 Bft) O-NO 67 0 min 12,6 C 3,6 km/h (1 Bft)
27.05.2016 19:10 22,2 C 23,6 C 55 % 1015,9 hPa 0,0 mm 4,8 km/h (1 Bft) NO 45 0 min 12,7 C 10,4 km/h (2 Bft)
27.05.2016 19:15 22,2 C 23,7 C 55 % 1015,9 hPa 0,0 mm 4,8 km/h (1 Bft) NW 315 0 min 12,7 C 5,4 km/h (1 Bft)
27.05.2016 19:20 22,5 C 25,1 C 54 % 1015,9 hPa 0,0 mm 7,2 km/h (2 Bft) N-NW 337 5 min 12,7 C 11,6 km/h (2 Bft)
27.05.2016 19:25 22,4 C 25,3 C 53 % 1015,9 hPa 0,0 mm 8,6 km/h (2 Bft) N-NW 337 5 min 12,3 C 19,1 km/h (3 Bft)
27.05.2016 19:30 22,1 C 25,1 C 53 % 1015,9 hPa 0,0 mm 10,1 km/h (2 Bft) NW 315 5 min 12,1 C 15,5 km/h (3 Bft)
27.05.2016 19:35 22,1 C 25,0 C 53 % 1015,9 hPa 0,0 mm 9,5 km/h (2 Bft) NO 45 5 min 12,1 C 9,5 km/h (2 Bft)
27.05.2016 19:40 22,1 C 24,9 C 53 % 1015,9 hPa 0,0 mm 7,5 km/h (2 Bft) N-NO 22 5 min 12,1 C 12,2 km/h (2 Bft)
27.05.2016 19:45 22,1 C 24,6 C 53 % 1015,9 hPa 0,0 mm 6,3 km/h (2 Bft) NO 45 5 min 12,1 C 8,0 km/h (2 Bft)
27.05.2016 19:50 21,9 C 24,0 C 53 % 1015,7 hPa 0,0 mm 6,0 km/h (2 Bft) N-NW 337 5 min 11,9 C 0,0 km/h (0 Bft)
27.05.2016 19:55 21,8 C 24,1 C 54 % 1015,7 hPa 0,0 mm 3,3 km/h (1 Bft) N-NW 337 5 min 12,1 C 0,0 km/h (0 Bft)
27.05.2016 20:00 21,6 C 24,1 C 54 % 1015,7 hPa 0,0 mm 3,0 km/h (1 Bft) O-NO 67 5 min 11,9 C 6,3 km/h (2 Bft)
27.05.2016 20:05 21,5 C 24,0 C 54 % 1015,7 hPa 0,0 mm 3,3 km/h (1 Bft) S-SO 157 5 min 11,8 C 0,0 km/h (0 Bft)
27.05.2016 20:10 21,2 C 23,7 C 54 % 1015,3 hPa 0,0 mm 1,2 km/h (1 Bft) W-NW 292 5 min 11,5 C 0,0 km/h (0 Bft)
27.05.2016 20:15 21,1 C 23,4 C 55 % 1015,3 hPa 0,0 mm 0,0 km/h (0 Bft) SO 135 5 min 11,7 C 0,0 km/h (0 Bft)
27.05.2016 20:20 20,8 C 22,9 C 56 % 1015,3 hPa 0,0 mm 0,0 km/h (0 Bft) O-NO 67 0 min 11,7 C 0,0 km/h (0 Bft)
27.05.2016 20:25 20,5 C 22,6 C 56 % 1015,3 hPa 0,0 mm 0,0 km/h (0 Bft) O-SO 112 0 min 11,4 C 0,0 km/h (0 Bft)
27.05.2016 20:30 20,3 C 22,1 C 57 % 1016,1 hPa 0,0 mm 0,0 km/h (0 Bft) O-SO 112 0 min 11,5 C 0,0 km/h (0 Bft)
27.05.2016 20:35 19,9 C 21,7 C 58 % 1016,1 hPa 0,0 mm 0,0 km/h (0 Bft) O-NO 67 0 min 11,4 C 0,0 km/h (0 Bft)
27.05.2016 20:40 19,5 C 20,6 C 59 % 1016,1 hPa 0,0 mm 0,9 km/h (0 Bft) O-NO 67 0 min 11,3 C 6,6 km/h (2 Bft)
27.05.2016 20:45 19,2 C 19,9 C 60 % 1016,1 hPa 0,0 mm 1,5 km/h (1 Bft) S-SO 157 0 min 11,2 C 5,4 km/h (1 Bft)
27.05.2016 20:50 18,6 C 18,9 C 62 % 1016,0 hPa 0,0 mm 3,6 km/h (1 Bft) N-NO 22 0 min 11,2 C 6,0 km/h (2 Bft)
27.05.2016 20:55 18,5 C 18,5 C 62 % 1016,0 hPa 0,0 mm 3,3 km/h (1 Bft) O 90 0 min 11,1 C 0,0 km/h (0 Bft)
27.05.2016 21:00 18,0 C 17,8 C 62 % 1016,0 hPa 0,0 mm 0,9 km/h (0 Bft) O-NO 67 0 min 10,6 C 0,0 km/h (0 Bft)
27.05.2016 21:05 17,8 C 17,4 C 63 % 1016,0 hPa 0,0 mm 0,0 km/h (0 Bft) O-NO 67 0 min 10,7 C 0,0 km/h (0 Bft)
27.05.2016 21:10 17,5 C 17,0 C 64 % 1015,9 hPa 0,0 mm 0,0 km/h (0 Bft) O 90 0 min 10,6 C 0,0 km/h (0 Bft)
27.05.2016 21:13 17,3 C 16,9 C 64 % 1015,9 hPa 0,0 mm 0,0 km/h (0 Bft) O-NO 67 0 min 10,4 C 0,0 km/h (0 Bft)
27.05.2016 21:15 17,3 C 16,9 C 64 % 1015,9 hPa 0,0 mm 0,0 km/h (0 Bft) O-NO 67 0 min 10,4 C 0,0 km/h (0 Bft)
27.05.2016 21:20 17,3 C 16,9 C 65 % 1015,9 hPa 0,0 mm 0,0 km/h (0 Bft) NO 45 0 min 10,7 C 0,0 km/h (0 Bft)
27.05.2016 21:25 17,2 C 16,8 C 67 % 1015,9 hPa 0,0 mm 0,0 km/h (0 Bft) SW 225 0 min 11,0 C 0,0 km/h (0 Bft)
27.05.2016 21:30 17,0 C 16,7 C 67 % 1016,0 hPa 0,0 mm 0,0 km/h (0 Bft) O-NO 67 0 min 10,8 C 0,0 km/h (0 Bft)
27.05.2016 21:35 17,0 C 16,7 C 68 % 1016,0 hPa 0,0 mm 0,0 km/h (0 Bft) NW 315 0 min 11,0 C 0,0 km/h (0 Bft)
27.05.2016 21:40 17,0 C 16,6 C 68 % 1016,0 hPa 0,0 mm 0,0 km/h (0 Bft) NW 315 0 min 11,0 C 0,0 km/h (0 Bft)
27.05.2016 21:45 16,9 C 16,6 C 68 % 1016,0 hPa 0,0 mm 0,0 km/h (0 Bft) NW 315 0 min 11,0 C 0,0 km/h (0 Bft)
27.05.2016 21:50 16,9 C 16,6 C 69 % 1016,2 hPa 0,0 mm 0,0 km/h (0 Bft) O-NO 67 0 min 11,2 C 0,0 km/h (0 Bft)
27.05.2016 21:55 16,8 C 16,6 C 69 % 1016,2 hPa 0,0 mm 0,0 km/h (0 Bft) O-NO 67 0 min 11,1 C 0,0 km/h (0 Bft)
27.05.2016 22:00 16,9 C 16,6 C 70 % 1016,2 hPa 0,0 mm 0,0 km/h (0 Bft) O 90 0 min 11,4 C 0,0 km/h (0 Bft)
27.05.2016 22:05 17,0 C 16,7 C 69 % 1016,2 hPa 0,0 mm 0,0 km/h (0 Bft) O-NO 67 0 min 11,3 C 0,0 km/h (0 Bft)
27.05.2016 22:10 16,8 C 16,5 C 70 % 1016,8 hPa 0,0 mm 0,0 km/h (0 Bft) O-NO 67 0 min 11,3 C 0,0 km/h (0 Bft)
27.05.2016 22:15 16,7 C 16,4 C 70 % 1016,8 hPa 0,0 mm 0,0 km/h (0 Bft) NW 315 0 min 11,2 C 0,0 km/h (0 Bft)
27.05.2016 22:20 16,6 C 16,4 C 70 % 1016,8 hPa 0,0 mm 0,0 km/h (0 Bft) NW 315 0 min 11,1 C 0,0 km/h (0 Bft)
27.05.2016 22:25 16,6 C 16,3 C 70 % 1016,8 hPa 0,0 mm 0,0 km/h (0 Bft) NW 315 0 min 11,1 C 0,0 km/h (0 Bft)
27.05.2016 22:30 16,5 C 16,1 C 70 % 1016,8 hPa 0,0 mm 0,0 km/h (0 Bft) NW 315 0 min 11,0 C 0,0 km/h (0 Bft)
27.05.2016 22:35 16,5 C 16,1 C 70 % 1016,8 hPa 0,0 mm 0,0 km/h (0 Bft) N-NW 337 0 min 11,0 C 0,0 km/h (0 Bft)
27.05.2016 22:40 16,4 C 16,0 C 71 % 1016,8 hPa 0,0 mm 0,9 km/h (0 Bft) SW 225 0 min 11,1 C 8,9 km/h (2 Bft)
27.05.2016 22:45 16,6 C 16,3 C 72 % 1016,8 hPa 0,0 mm 3,9 km/h (1 Bft) W-SW 247 0 min 11,5 C 23,8 km/h (4 Bft)
27.05.2016 22:50 16,8 C 16,0 C 72 % 1017,7 hPa 0,7 mm 14,6 km/h (3 Bft) W 270 0 min 11,7 C 44,4 km/h (6 Bft)
27.05.2016 22:55 16,0 C 15,3 C 73 % 1017,7 hPa 0,0 mm 20,0 km/h (4 Bft) W-NW 292 0 min 11,2 C 27,1 km/h (4 Bft)
27.05.2016 23:00 15,3 C 14,4 C 74 % 1017,7 hPa 0,7 mm 18,2 km/h (3 Bft) NO 45 0 min 10,7 C 5,1 km/h (1 Bft)
27.05.2016 23:05 15,1 C 14,2 C 74 % 1017,7 hPa 0,0 mm 10,1 km/h (2 Bft) W-SW 247 0 min 10,5 C 0,0 km/h (0 Bft)
27.05.2016 23:10 14,7 C 13,9 C 75 % 1017,6 hPa 0,7 mm 1,8 km/h (1 Bft) SW 225 0 min 10,3 C 0,0 km/h (0 Bft)
27.05.2016 23:15 14,5 C 13,7 C 75 % 1017,6 hPa 0,0 mm 1,8 km/h (1 Bft) S 180 0 min 10,1 C 0,0 km/h (0 Bft)
27.05.2016 23:20 14,0 C 13,4 C 78 % 1017,6 hPa 0,0 mm 0,3 km/h (0 Bft) O-NO 67 0 min 10,2 C 0,0 km/h (0 Bft)
27.05.2016 23:25 13,9 C 13,4 C 78 % 1017,6 hPa 0,7 mm 0,0 km/h (0 Bft) O-SO 112 0 min 10,1 C 0,0 km/h (0 Bft)
27.05.2016 23:30 13,7 C 13,3 C 78 % 1017,2 hPa 0,0 mm 0,0 km/h (0 Bft) O-SO 112 0 min 9,9 C 0,0 km/h (0 Bft)
27.05.2016 23:35 13,7 C 13,3 C 79 % 1017,2 hPa 0,0 mm 0,0 km/h (0 Bft) W-SW 247 0 min 10,1 C 0,0 km/h (0 Bft)
27.05.2016 23:40 13,6 C 13,2 C 79 % 1017,2 hPa 0,0 mm 0,9 km/h (0 Bft) O-SO 112 0 min 10,0 C 0,0 km/h (0 Bft)
27.05.2016 23:45 13,5 C 13,1 C 80 % 1017,2 hPa 0,0 mm 0,9 km/h (0 Bft) O 90 0 min 10,1 C 0,0 km/h (0 Bft)
27.05.2016 23:50 13,4 C 13,1 C 80 % 1016,6 hPa 0,0 mm 0,0 km/h (0 Bft) O 90 0 min 10,0 C 0,0 km/h (0 Bft)
27.05.2016 23:55 13,3 C 13,0 C 81 % 1016,6 hPa 0,0 mm 0,0 km/h (0 Bft) SO 135 0 min 10,1 C 0,0 km/h (0 Bft)
_ Min-Zeit 05:05 05:05 15:45 06:25 - 23:55 - - - 04:35 23:55
Minimum _ 9,2 C 8,7 C 47 % 1014,6 hPa - 0,0 km/h (0 Bft) - - - 6,4 C 0,0 km/h (0 Bft)
_ Max-Zeit 15:55 15:50 06:08 12:45 23:25 22:55 - - 20:15 09:10 22:50
Maximum _ 24,7 C 30,4 C 84 % 1018,0 hPa 0,7 mm 20,0 km/h
W-NW (4 Bft)
- - 5 min 13,4 C 44,4 km/h
W (6 Bft)
Durchschnitt _ 17,9 C 20,0 C 64 % 1016,1 hPa #2,7 mm 3,9 km/h (1 Bft) W - #9:30 h 10,7 C 5,4 km/h (1 Bft)